Location: Lynch Observatory
(39.9540°N, 75.1861°W)
Time: 18:51:05
(UTC-04:00)

UWE-3 - Pass Details

Date: 29 April 2024
Orbit: 569 x 651 km, 97.8° (Epoch: 28 May)

Event Time Altitude Azimuth Distance (km) Brightness Sun altitude
Rises 03:35:46 0° 11° (NNE) 2,892 ? -24.2°
Reaches altitude 10° 03:37:56 10° 11° (NNE) 1,995 ? -24.0°
Maximum altitude 03:42:18 86° 286° (WNW) 639 ? -23.4°
Enters shadow 03:42:33 79° 215° (SW) 648 ? -23.3°
